Wind_Speed
18 22 20 30 28 31 37 42 38 53 47 46 46 50 59 62 60 56 54 66 69 73 64 66 67 71 75 78 76 76 71 63
24 29 21 20 30 35 32 34 42 38 48 53 55 57 54 61 57 64 57 59 63 64 65 68 69 76 80 76 69 61 59 60
26 28 30 20 26 35 39 42 43 46 51 60 57 51 57 61 63 62 61 61 64 65 68 70 73 75 65 60 56 57 59 63
31 36 34 36 29 30 38 44 45 47 48 47 50 60 64 64 64 61 64 65 60 62 64 66 66 62 57 56 57 61 64 65
24 25 30 36 33 33 32 32 41 45 45 48 50 53 53 54 57 59 60 59 57 58 58 58 58 54 57 59 62 65 67 70
23 33 33 31 30 32 33 34 35 33 34 36 38 43 44 47 47 51 53 54 53 55 56 57 55 57 62 65 66 66 70 75
25 26 27 28 30 35 37 39 37 37 38 39 39 41 42 44 47 50 51 48 48 49 52 55 57 61 64 68 69 72 74 78
27 28 26 28 29 32 34 35 35 36 36 38 39 41 43 42 41 41 41 45 45 50 55 58 62 65 69 72 76 79 83 84
29 29 29 30 29 31 34 34 34 36 37 35 37 36 36 36 33 33 39 46 49 55 60 59 67 71 75 78 82 83 85 85
31 31 32 33 31 30 34 35 36 35 35 34 32 31 32 34 37 40 43 49 50 55 60 64 69 70 77 83 83 85 87 88
35 34 34 31 31 34 36 37 35 35 36 36 32 31 29 27 38 46 47 48 54 60 63 67 73 79 81 84 86 86 89 91
36 37 35 34 35 36 38 35 34 37 36 33 32 32 30 34 40 48 50 56 61 62 65 71 76 79 83 85 86 89 93 95
38 38 38 39 40 41 38 34 36 36 37 36 35 38 36 38 45 51 56 60 62 64 70 75 78 80 84 88 90 93 97 100
41 41 41 41 43 41 38 35 37 39 40 40 38 39 42 46 51 57 62 65 68 72 76 77 79 83 86 89 93 97 99 102
41 40 40 42 41 38 37 39 41 41 42 43 43 44 48 51 56 61 65 69 72 74 77 79 83 86 90 93 95 99 100 104
41 35 36 38 39 41 43 43 44 43 47 48 49 51 54 58 62 66 69 73 74 77 80 83 87 90 94 97 98 101 103 105
34 36 37 39 39 40 42 44 47 51 53 54 55 57 60 63 66 70 73 75 77 81 83 87 90 95 96 101 102 103 106 108
40 41 41 40 41 41 43 46 50 53 55 57 60 63 65 67 70 73 76 78 81 84 87 90 92 95 99 100 103 106 108 111
40 42 44 45 45 46 46 47 51 55 58 61 64 66 68 71 74 76 79 82 85 88 90 93 95 97 99 103 106 108 110 111
Wind_Direction
208 224 229 214 213 225 225 229 232 226 237 233 231 239 241 249 256 259 263 263 269 270 283 286 290 293 294 294 296 296 297 297
208 221 217 234 229 220 223 234 237 235 238 240 245 249 253 253 258 263 272 276 278 281 285 288 292 292 293 293 292 293 293 292
225 223 219 243 243 236 239 243 247 250 252 249 243 257 259 259 261 268 277 281 283 285 287 287 290 290 292 291 293 293 293 292
228 222 228 237 252 243 248 246 255 257 257 260 261 261 266 272 275 278 278 279 280 282 286 287 288 289 287 288 293 295 297 300
226 226 234 244 252 256 253 251 252 254 259 261 263 267 268 270 269 274 274 278 284 285 285 284 285 286 291 295 296 299 300 300
229 242 252 257 259 259 258 260 260 263 263 264 266 266 267 271 277 280 280 281 281 281 280 283 287 290 296 296 296 298 300 302
258 257 255 259 262 262 262 264 264 263 264 266 268 272 275 277 280 280 279 279 281 281 282 287 291 292 295 297 295 296 300 303
251 251 258 263 262 259 257 257 259 263 266 268 270 276 279 279 277 279 284 285 289 287 287 291 293 297 297 298 300 301 304 305
252 257 257 257 267 270 269 269 272 271 270 274 275 276 273 271 279 280 279 283 281 285 288 296 299 299 298 298 299 301 302 306
259 266 266 265 271 275 273 273 275 274 274 273 272 262 268 276 279 276 280 283 285 289 290 291 291 292 296 298 297 300 305 307
263 267 268 268 274 273 269 277 272 270 268 267 261 257 260 271 271 274 281 283 279 282 287 288 289 292 294 296 299 305 307 308
270 275 275 276 279 277 276 273 273 270 266 260 255 257 260 263 271 271 273 275 281 284 287 290 293 295 298 300 304 307 307 308
271 272 276 279 281 283 276 268 267 261 259 256 259 263 264 259 265 271 274 280 282 285 289 292 297 299 301 304 306 306 306 307
268 271 274 275 279 278 273 267 261 255 256 257 261 267 268 268 268 271 276 280 284 287 290 294 297 300 303 305 306 307 309 308
266 267 271 273 272 271 267 264 261 261 262 262 263 263 268 272 276 278 279 282 285 290 295 299 302 303 304 304 305 305 307 307
265 265 262 261 265 268 267 261 258 258 262 265 266 269 274 277 278 281 285 288 294 297 299 301 301 303 303 303 304 305 306 308
263 265 259 256 264 267 268 265 260 262 265 269 272 275 277 280 284 286 289 295 298 298 299 300 302 303 303 303 305 307 308 308
270 272 271 267 263 269 270 267 264 265 268 272 275 278 280 283 286 291 295 297 297 298 300 301 301 301 302 303 305 307 308 308
267 270 274 276 277 277 276 272 270 269 270 272 275 279 284 288 291 295 295 295 297 300 300 300 300 301 303 304 305 306 308 308
Height
10639 10641 10644 10648 10651 10653 10655 10657 10660 10664 10665 10667 10669 10669 10668 10668 10669 10669 10665 10664 10662 10658 10654 10648 10645 10640 10637 10633 10627 10620 10616 10612
10634 10637 10641 10643 10646 10648 10649 10652 10654 10655 10657 10658 10659 10662 10661 10659 10656 10657 10655 10651 10647 10645 10641 10637 10632 10629 10625 10619 10613 10606 10603 10601
10628 10632 10635 10637 10639 10641 10643 10645 10646 10648 10649 10649 10649 10648 10649 10648 10647 10643 10642 10640 10636 10630 10628 10625 10621 10617 10611 10606 10599 10594 10592 10587
10624 10626 10629 10631 10632 10633 10634 10636 10637 10638 10639 10641 10641 10641 10639 10637 10634 10633 10630 10629 10623 10621 10618 10614 10609 10605 10600 10593 10587 10582 10578 10572
10619 10621 10624 10625 10626 10626 10627 10627 10628 10628 10629 10630 10631 10630 10629 10628 10626 10621 10620 10618 10613 10609 10606 10601 10597 10593 10587 10579 10574 10569 10563 10558
10615 10616 10617 10617 10617 10617 10618 10618 10619 10620 10620 10620 10619 10617 10617 10614 10613 10611 10609 10606 10602 10599 10594 10589 10585 10579 10573 10567 10561 10557 10550 10541
10609 10609 10609 10610 10611 10610 10610 10610 10610 10611 10610 10610 10609 10606 10605 10604 10602 10600 10598 10595 10592 10587 10582 10577 10573 10568 10561 10553 10548 10542 10535 10526
10601 10602 10602 10602 10601 10601 10601 10601 10601 10600 10599 10599 10599 10596 10595 10594 10592 10588 10584 10581 10579 10574 10570 10567 10561 10553 10545 10537 10531 10521 10513 10507
10595 10596 10595 10594 10594 10593 10592 10591 10591 10590 10589 10590 10588 10587 10585 10584 10582 10579 10575 10572 10568 10564 10559 10554 10545 10538 10529 10522 10513 10506 10497 10488
10588 10588 10587 10587 10586 10586 10584 10582 10581 10580 10579 10579 10579 10578 10577 10575 10571 10569 10566 10562 10558 10553 10547 10542 10535 10526 10515 10505 10500 10490 10480 10470
10579 10579 10579 10579 10579 10577 10574 10573 10571 10571 10570 10570 10569 10569 10569 10567 10563 10559 10555 10551 10547 10541 10537 10529 10520 10509 10501 10491 10482 10472 10461 10451
10569 10569 10569 10570 10568 10567 10565 10563 10562 10561 10560 10560 10559 10558 10559 10557 10552 10547 10544 10539 10534 10530 10523 10515 10506 10495 10483 10474 10464 10454 10443 10433
10560 10560 10559 10558 10557 10556 10555 10553 10552 10552 10551 10551 10549 10548 10547 10545 10541 10537 10532 10527 10521 10515 10509 10500 10489 10479 10467 10455 10447 10437 10425 10412
10552 10552 10550 10548 10546 10545 10544 10543 10544 10543 10542 10542 10540 10537 10535 10532 10529 10524 10519 10514 10507 10500 10493 10485 10475 10462 10452 10442 10428 10416 10405 10390
10542 10542 10540 10538 10537 10535 10534 10534 10533 10534 10533 10531 10529 10526 10523 10520 10516 10511 10506 10500 10493 10486 10477 10467 10455 10444 10434 10423 10412 10401 10388 10372
10532 10531 10530 10528 10527 10526 10526 10525 10524 10524 10521 10519 10518 10515 10511 10506 10501 10496 10490 10483 10477 10468 10458 10448 10437 10427 10414 10401 10394 10380 10367 10352
10521 10521 10521 10519 10517 10516 10515 10515 10514 10511 10509 10507 10505 10501 10497 10492 10486 10480 10473 10466 10459 10449 10441 10430 10419 10406 10395 10381 10369 10359 10345 10329
10511 10509 10508 10508 10507 10506 10505 10504 10502 10501 10498 10495 10491 10486 10482 10477 10471 10464 10457 10448 10440 10431 10422 10412 10402 10389 10377 10364 10351 10338 10325 10307
10501 10500 10498 10496 10495 10493 10492 10490 10488 10486 10484 10480 10477 10473 10467 10461 10455 10448 10440 10431 10423 10413 10403 10392 10382 10369 10355 10342 10328 10316 10300 10282